Flag for U.S.A. Weather past 2 weeks in Davenport, Iowa, U.S.A.

Now
61 °F

Fog.


Feels Like: 61 °F
Forecast: 61 / 85 °F
Wind: 3 mph from East

Location: Davenport Municipal Airport

Current Time: Aug 31, 2015 at 2:53:27 AM

Latest Report: Aug 31, 2015 at 1:52 AM


Visibility: 6 mi

Pressure: 30.01 "Hg

Humidity: 97%

Dew point: 60 °F

Location of DavenportLocation

Historic Weather in Davenport — Graph

°F

Davenport temperature yesterday

Maximum temperature yesterday: 78 °F (at 2:52 PM)
Minimum temperature yesterday: 58 °F (at 3:52 AM)
Average temperature yesterday: 67 °F

Past Weeks' High & Low Weather Summary

 TemperatureHumidityPressure
High86 °F (Aug 16, 1:52 PM)100% (Aug 18, 4:00 AM)30.20 "Hg (Aug 18, 4:00 AM)
Low49 °F (Aug 25, 5:52 AM)40% (Aug 20, 2:52 PM)29.61 "Hg (Aug 19, 3:52 AM)
Average67 °F78%29.99 "Hg
* Reported Aug 16 12:52 AM — Aug 31 12:52 AM, Davenport, Weather by CustomWeather, © 2015

Note: Actual official high and low records may vary slightly from our data, if they occured in-between our weather recording intervals... More about our weather records

Advertising

Davenport weather history for previous 24 hours

 ConditionsComfort  
Time TempWeatherWind HumidityBarometerVisibility
12:52 AM
Mon, Aug 31
62 °FClear.No wind93%30.02 "Hg7 mi
11:52 PM
Sun, Aug 30
64 °FClear.5 mph94%30.02 "Hg10 mi
10:52 PM65 °FClear.6 mph91%30.02 "Hg10 mi
9:52 PM64 °FClear.5 mph94%30.03 "Hg10 mi
8:52 PM65 °FClear.5 mph94%30.02 "Hg10 mi
7:52 PM68 °FSunny.5 mph87%30.01 "Hg10 mi
6:52 PM72 °FSunny.6 mph84%30.00 "Hg10 mi
5:52 PM77 °FSunny.3 mph69%30.01 "Hg10 mi
4:52 PM77 °FPassing clouds.3 mph66%30.02 "Hg10 mi
3:52 PM78 °FPartly sunny.No wind64%30.03 "Hg10 mi
2:52 PM78 °FScattered clouds.5 mph64%30.04 "Hg10 mi
1:52 PM76 °FScattered clouds.No wind69%30.06 "Hg10 mi
12:52 PM76 °FOvercast.No wind67%30.07 "Hg10 mi
11:52 AM72 °FPassing clouds.No wind76%30.09 "Hg10 mi
10:52 AM69 °FPartly sunny.No wind87%30.10 "Hg10 mi
9:52 AM65 °FFog.6 mph97%30.09 "Hg5 mi
8:52 AM63 °FFog.5 mph100%30.08 "Hg0 mi
7:52 AM61 °FFog.5 mph100%30.06 "Hg0 mi
6:52 AM61 °FFog.3 mph97%30.06 "Hg0 mi
5:52 AM59 °FFog.No wind96%30.04 "Hg0 mi
5:02 AM58 °FFog.3 mph100%30.05 "Hg0 mi
3:52 AM58 °FFog.No wind97%30.03 "Hg0 mi
2:52 AM60 °FFog.3 mph96%30.03 "Hg0 mi
Weather by CustomWeather, © 2015

See weather overviewHow to use our weather pages